[[{"header":{"parameterUnit":"m.s-1","parameterCategory":1,"la1":30.2991,"la2":30.254,"lo1":-89.0895,"lo2":-89.0444,"dy":0.0017,"dx":0.0017,"nx":28,"ny":28,"refTime":"2024-02-10T03:00:00:Z","depth":0,"parameterNumber":2,"parameterNumberName":"U-component_of_WINDS"},"data":[0,0,0,0,0,0,0,0,0,0,0,0,0,0,0,0,0,0,0,0,0,0,0,0,0,0,0,0,0,0,0,0,0,0,0,0,0,0,0,0,0,0,0,0,0,0,0,0,0,0,0,0,0,0,0,0,0,0,-2.3882,-2.3883,0,-2.401,-2.4012,-2.4013,-2.4015,-2.4014,-2.4012,-2.4011,-2.4145,-2.415,-2.4155,0,0,0,0,0,0,0,0,0,0,0,0,0,-2.364,-2.3644,-2.3882,-2.3883,-2.3885,-2.401,-2.4012,-2.4014,-2.4016,-2.4014,-2.4012,-2.401,-2.4143,-2.4149,-2.4155,0,0,0,0,0,0,0,0,0,0,0,0,0,-2.3755,-2.3646,-2.3881,-2.3901,-2.3904,-2.401,-2.4012,-2.4014,-2.4016,-2.4014,-2.4011,-2.4009,-2.4141,-2.4149,-2.4156,-2.4252,0,0,-2.418,-2.4183,0,0,0,0,0,0,0,0,-2.3748,-2.3763,-2.3896,-2.39,-2.3903,-2.3994,-2.3976,-2.4094,-2.4017,-2.3974,-2.401,-2.4008,-2.4097,-2.4108,-2.4138,-2.4258,-2.4264,-2.418,-2.4185,-2.4188,-2.419,0,0,0,0,0,0,0,-2.374,-2.3758,-2.3933,-2.3898,-2.3902,-2.3904,-2.3918,-2.3999,-2.4047,-2.3977,-2.3977,-2.3993,-2.4098,-2.413,-2.4141,-2.4266,-2.418,-2.4187,-2.4191,-2.4194,-2.4474,-2.4476,0,0,0,0,0,0,-2.3728,-2.3751,-2.3929,-2.3936,-2.3818,-2.391,-2.3926,-2.3968,-2.4047,-2.4056,-2.3995,-2.3992,-2.4118,-2.4132,-2.4146,-2.4264,-2.4188,-2.4195,-2.42,-2.4471,-2.4474,-2.4477,0,0,0,0,0,0,-2.3723,-2.3744,-2.3923,-2.3844,-2.3867,-2.3917,-2.3964,-2.3971,-2.4003,-2.406,-2.4069,-2.4018,-2.4117,-2.4135,-2.4226,-2.4268,-2.4199,-2.4206,-2.4467,-2.4472,-2.4476,-2.45,0,0,0,0,0,0,-2.3716,-2.3742,-2.3778,-2.3845,-2.3871,-2.4,-2.3967,-2.3976,-2.4016,-2.4014,-2.4084,-2.4093,-2.4116,-2.4214,-2.4233,-2.4278,-2.4212,-2.4464,-2.4469,-2.4474,-2.4496,-2.4505,-2.4513,0,0,0,0,0,-2.3707,-2.378,-2.378,-2.3801,-2.3917,-2.4003,-2.4018,-2.4043,-2.4019,-2.4057,-2.4093,-2.4091,-2.4261,-2.4224,-2.4245,-2.4292,-2.4461,-2.4468,-2.4474,-2.4492,-2.4503,-2.4512,0,0,0,0,0,0,-2.3717,-2.3789,-2.379,-2.3886,-2.3938,-2.4003,-2.4051,-2.4053,-2.4114,-2.4109,-2.4138,-2.4154,-2.4245,-2.4278,-2.4235,-2.439,-2.4358,-2.4369,-2.4365,-2.4376,-2.4384,-2.4374,-2.4218,0,0,0,0,0,-2.3731,-2.3793,-2.3853,-2.3933,-2.3959,-2.4,-2.4038,-2.4053,-2.4108,-2.4131,-2.4174,-2.4228,-2.4294,-2.4337,-2.44,-2.4501,-2.4517,-2.4544,-2.4552,-2.4559,-2.4568,-2.4625,-2.4638,-2.4498,-2.4498,-2.4498,0,0,-2.3759,-2.3806,-2.3844,-2.3936,-2.3978,-2.4043,-2.4019,-2.4089,-2.4137,-2.4142,-2.423,-2.4264,-2.4327,-2.4423,-2.4468,-2.4453,-2.461,-2.4567,-2.4572,-2.4578,-2.4632,-2.4646,-2.4657,-2.4503,-2.4502,-2.4501,0,0,-2.3845,-2.3886,-2.3957,-2.4,-2.4064,-2.4091,-2.4108,-2.4173,-2.4195,-2.4284,-2.4289,-2.4348,-2.4461,-2.4506,-2.4543,-2.4647,-2.4647,-2.4667,-2.471,-2.4765,-2.4776,-2.4786,-2.4823,-2.4836,-2.4676,-2.4676,-2.4676,0,-2.3872,-2.3969,-2.3994,-2.4064,-2.4104,-2.4111,-2.4184,-2.4224,-2.4306,-2.4334,-2.4317,-2.4459,-2.4502,-2.4609,-2.4634,-2.4664,-2.4685,-2.4659,-2.4772,-2.4782,-2.4792,-2.4828,-2.4842,-2.4678,-2.4677,-2.4677,-2.4677,0,-2.4001,-2.4068,-2.4118,-2.4196,-2.4243,-2.4314,-2.435,-2.4394,-2.4405,-2.4434,-2.4526,-2.4577,-2.4652,-2.4678,-2.469,-2.4788,-2.4777,-2.4766,-2.4735,-2.4807,-2.4841,-2.4855,-2.468,-2.468,-2.4679,-2.4679,0,0,-2.4095,-2.4186,-2.4204,-2.424,-2.4312,-2.4365,-2.4437,-2.4509,-2.4547,-2.4604,-2.4665,-2.4761,-2.4751,-2.4793,-2.481,-2.4858,-2.4938,-2.4841,-2.4843,-2.4857,-2.505,-2.5058,-2.5073,-2.4938,-2.4941,-2.4943,-2.5044,0,-2.4188,-2.4315,-2.434,-2.4451,-2.4514,-2.4521,-2.4584,-2.4636,-2.4665,-2.4724,-2.4758,-2.4825,-2.4806,-2.4832,-2.488,-2.4918,-2.4977,-2.4911,-2.4997,-2.5,-2.498,-2.5091,-2.51,-2.5193,-2.5058,-2.506,-2.5062,0,-2.4314,-2.4373,-2.449,-2.4554,-2.4581,-2.4637,-2.4706,-2.4762,-2.4821,-2.4839,-2.4887,-2.4899,-2.4975,-2.494,-2.5046,-2.5001,-2.5038,-2.5062,-2.5066,-2.5075,-2.5035,-2.5103,-2.5223,-2.5237,-2.5083,-2.5082,-2.508,0,-2.4371,-2.448,-2.4565,-2.4595,-2.4672,-2.4711,-2.4745,-2.4801,-2.4843,-2.4904,-2.4932,-2.5,-2.5038,-2.5092,-2.5122,-2.5094,-2.5226,-2.5194,-2.5244,-2.5243,-2.5271,-2.5269,-2.5399,-2.5295,-2.5295,-2.5295,-2.5294,0,-2.4473,-2.4544,-2.4592,-2.4643,-2.4724,-2.4752,-2.4832,-2.4865,-2.4915,-2.4975,-2.4986,-2.5041,-2.5078,-2.5139,-2.5163,-2.5248,-2.5265,-2.5282,-2.5288,-2.5281,-2.5279,-2.5306,-2.53,-2.5298,-2.5297,-2.5297,-2.5296,0,-2.455,-2.4585,-2.4678,-2.4742,-2.4761,-2.4817,-2.4873,-2.4925,-2.4955,-2.503,-2.5049,-2.5097,-2.5169,-2.5205,-2.5295,-2.5311,-2.5407,-2.5409,-2.5387,-2.5389,-2.5438,-2.5433,-2.5589,-2.5611,-2.5492,-2.5493,-2.5494,0,-2.4613,-2.4668,-2.4739,-2.4779,-2.4814,-2.4878,-2.4921,-2.4952,-2.4996,-2.5068,-2.5111,-2.5184,-2.5244,-2.536,-2.5403,-2.5472,-2.5476,-2.5526,-2.5486,-2.5478,-2.5477,-2.5473,-2.5479,-2.5532,-2.5534,-2.5535,-2.5535,0,-2.472,-2.4735,-2.4796,-2.4864,-2.4914,-2.4969,-2.5023,-2.5056,-2.5095,-2.5145,-2.5219,-2.5265,-2.5358,-2.543,-2.5503,-2.5539,-2.5544,-2.5547,-2.5563,-2.5557,-2.5542,-2.5551,-2.5406,-2.5544,-2.5543,-2.5542,-2.5542,-2.5541,-2.4792,-2.4842,-2.49,-2.4968,-2.5012,-2.5062,-2.5113,-2.515,-2.5212,-2.5289,-2.5303,-2.5382,-2.5441,-2.5539,-2.5577,-2.564,-2.5629,-2.5651,-2.5657,-2.5662,-2.5665,-2.5532,-2.5654,-2.5653,-2.5653,-2.5653,-2.5653,0,-2.49,-2.4938,-2.5,-2.5075,-2.5129,-2.5129,-2.5189,-2.5235,-2.5303,-2.5357,-2.5416,-2.5502,-2.5573,-2.5622,-2.5694,-2.5735,-2.5739,-2.5753,-2.575,-2.5758,-2.567,-2.565,-2.5748,-2.5748,-2.5748,-2.5748,-2.5748,-2.5748,-2.4963,-2.5047,-2.5068,-2.5175,-2.5212,-2.5289,-2.5323,-2.537,-2.5414,-2.5508,-2.5567,-2.5598,-2.5651,-2.5727,-2.5792,-2.5805,-2.5831,-2.5845,-2.5857,-2.5774,-2.5764,-2.5755,-2.5736,-2.585,-2.585,-2.594,-2.5941,-2.5942]},{"header":{"parameterUnit":"m.s-1","parameterCategory":1,"la1":30.2991,"la2":30.254,"lo1":-89.0895,"lo2":-89.0444,"dy":0.0017,"dx":0.0017,"nx":28,"ny":28,"refTime":"2024-02-10T03:00:00:Z","depth":0,"parameterNumber":3,"parameterNumberName":"V-component_of_WINDS"},"data":[0,0,0,0,0,0,0,0,0,0,0,0,0,0,0,0,0,0,0,0,0,0,0,0,0,0,0,0,0,0,0,0,0,0,0,0,0,0,0,0,0,0,0,0,0,0,0,0,0,0,0,0,0,0,0,0,0,0,1.1374,1.1376,0,1.1589,1.1592,1.1594,1.1701,1.1701,1.1701,1.1701,1.1927,1.1933,1.1939,0,0,0,0,0,0,0,0,0,0,0,0,0,1.106,1.1065,1.1373,1.1376,1.1379,1.1589,1.1592,1.1595,1.1701,1.1701,1.1701,1.1701,1.1926,1.1933,1.194,0,0,0,0,0,0,0,0,0,0,0,0,0,1.1228,1.1067,1.1373,1.1457,1.1466,1.1588,1.1592,1.1596,1.1701,1.1701,1.1701,1.1701,1.1923,1.1932,1.1941,1.1998,0,0,1.1969,1.1973,0,0,0,0,0,0,0,0,1.1218,1.124,1.1442,1.1451,1.1462,1.1618,1.1565,1.1731,1.1701,1.1612,1.1701,1.1701,1.1825,1.1842,1.1883,1.2008,1.2018,1.197,1.1975,1.1979,1.1982,0,0,0,0,0,0,0,1.1207,1.1231,1.1459,1.1444,1.1457,1.1486,1.151,1.1597,1.1716,1.162,1.1628,1.1652,1.1831,1.1874,1.1889,1.2021,1.1969,1.1977,1.1983,1.1987,1.2208,1.2209,0,0,0,0,0,0,1.1181,1.122,1.1452,1.1465,1.1338,1.1492,1.1518,1.1568,1.1715,1.1738,1.1651,1.1656,1.1858,1.1878,1.1897,1.1976,1.1979,1.1987,1.1993,1.2208,1.2208,1.2209,0,0,0,0,0,0,1.1173,1.12,1.1443,1.1345,1.1378,1.1497,1.1552,1.1572,1.1616,1.1739,1.1762,1.1673,1.1859,1.1885,1.1972,1.1985,1.1991,1.2,1.2207,1.2208,1.2208,1.2131,0,0,0,0,0,0,1.1164,1.1197,1.1218,1.1345,1.1383,1.1512,1.1553,1.1577,1.163,1.1638,1.1766,1.1787,1.1861,1.1958,1.1981,1.1998,1.2007,1.2207,1.2207,1.2208,1.2133,1.2129,1.2126,0,0,0,0,0,1.1152,1.1188,1.1218,1.1246,1.1411,1.1513,1.1535,1.1618,1.1631,1.1654,1.1734,1.1783,1.1979,1.1966,1.1993,1.2013,1.2206,1.2207,1.2208,1.2135,1.213,1.2126,0,0,0,0,0,0,1.1061,1.1206,1.1241,1.1319,1.1402,1.153,1.1562,1.1609,1.1693,1.1697,1.1798,1.1826,1.1905,1.1968,1.195,1.2077,1.2098,1.2104,1.2033,1.2029,1.2026,1.201,1.2014,0,0,0,0,0,1.1049,1.1117,1.1242,1.1298,1.1338,1.1442,1.149,1.1546,1.1638,1.1674,1.1761,1.185,1.1932,1.1984,1.2066,1.2143,1.2174,1.217,1.2166,1.2162,1.2167,1.2215,1.2216,1.2212,1.2212,1.2212,0,0,1.1027,1.1115,1.1152,1.1282,1.1353,1.1424,1.1472,1.1544,1.1598,1.1686,1.1774,1.1841,1.1947,1.203,1.2071,1.2085,1.2175,1.2163,1.2159,1.2167,1.2216,1.2217,1.2217,1.2213,1.2212,1.2212,0,0,1.1023,1.1095,1.1151,1.1222,1.1329,1.1398,1.1412,1.1533,1.158,1.167,1.1738,1.1806,1.1944,1.2018,1.2073,1.2099,1.2148,1.2123,1.2104,1.215,1.215,1.2151,1.2162,1.2165,1.2127,1.2127,1.2127,0,1.0982,1.1089,1.1174,1.1243,1.13,1.1381,1.1441,1.1506,1.1635,1.1673,1.1686,1.1864,1.1941,1.2043,1.2049,1.2091,1.2112,1.2109,1.2142,1.2144,1.2146,1.2159,1.2162,1.2123,1.2124,1.2124,1.2124,0,1.1035,1.1109,1.1142,1.1263,1.1323,1.1387,1.1484,1.1536,1.1587,1.1656,1.1748,1.1844,1.1948,1.1976,1.2028,1.2087,1.2093,1.2122,1.2146,1.2142,1.2155,1.216,1.2118,1.2119,1.212,1.2121,0,0,1.098,1.1148,1.1158,1.1216,1.1341,1.14,1.1469,1.1569,1.1613,1.1699,1.1762,1.1878,1.1907,1.197,1.2031,1.2071,1.2088,1.2097,1.2101,1.2094,1.2163,1.214,1.2144,1.2121,1.2122,1.2123,1.2155,0,1.0994,1.1119,1.1198,1.1293,1.1363,1.1442,1.1503,1.1587,1.1654,1.1726,1.1801,1.1882,1.1913,1.1952,1.1995,1.2076,1.2104,1.2075,1.2182,1.2185,1.2155,1.2151,1.2127,1.2152,1.216,1.2161,1.2162,0,1.1028,1.1112,1.1212,1.1331,1.1364,1.1416,1.1516,1.1583,1.1682,1.1728,1.1798,1.186,1.1939,1.1954,1.2067,1.2045,1.2094,1.2141,1.2144,1.2159,1.2174,1.2167,1.2162,1.2167,1.217,1.217,1.2169,0,1.098,1.1118,1.1196,1.1243,1.1383,1.1418,1.1479,1.1578,1.1634,1.1722,1.176,1.1856,1.1909,1.1984,1.2071,1.2074,1.2175,1.2197,1.2218,1.2216,1.2237,1.2235,1.2242,1.2265,1.2265,1.2265,1.2265,0,1.0989,1.1048,1.1177,1.1225,1.1295,1.1387,1.1454,1.1522,1.1609,1.1674,1.1749,1.1809,1.192,1.1994,1.2063,1.2147,1.217,1.2212,1.223,1.2206,1.2201,1.2241,1.2242,1.2266,1.2266,1.2265,1.2265,0,1.0947,1.1035,1.1127,1.1252,1.1285,1.1331,1.144,1.1492,1.1563,1.1644,1.1669,1.1781,1.1873,1.1967,1.2091,1.2138,1.2221,1.2244,1.2187,1.2197,1.2213,1.2211,1.2247,1.2258,1.2271,1.2271,1.2271,0,1.0948,1.0995,1.1126,1.1174,1.1232,1.1309,1.1366,1.146,1.1517,1.1634,1.1672,1.1769,1.1852,1.1996,1.209,1.2187,1.2214,1.222,1.2229,1.2205,1.2217,1.2214,1.2221,1.2217,1.2217,1.2216,1.2216,0,1.0941,1.0983,1.1061,1.1156,1.1222,1.1301,1.1384,1.142,1.153,1.1591,1.1685,1.1749,1.1876,1.1973,1.2081,1.2147,1.2201,1.2212,1.2222,1.22,1.2165,1.2186,1.2179,1.2211,1.2211,1.2212,1.2212,1.2212,1.0923,1.0969,1.1068,1.1154,1.1226,1.1302,1.1357,1.1434,1.1514,1.1623,1.1674,1.1769,1.1871,1.2021,1.2085,1.2163,1.2178,1.2192,1.2196,1.2199,1.2194,1.2151,1.2183,1.2183,1.2183,1.2183,1.2184,0,1.0921,1.0989,1.1067,1.118,1.1248,1.1291,1.1385,1.144,1.1522,1.1611,1.169,1.18,1.1894,1.1996,1.2097,1.214,1.2168,1.2164,1.2163,1.2178,1.2174,1.2156,1.214,1.214,1.214,1.214,1.214,1.214,1.0929,1.101,1.1064,1.1183,1.1252,1.1344,1.1394,1.1466,1.1537,1.1655,1.1733,1.1798,1.1894,1.2003,1.2092,1.212,1.2155,1.2144,1.2179,1.2174,1.2177,1.2181,1.2164,1.215,1.215,1.2177,1.2177,1.2177]}]]